TimeHST,TemperatureF,Dew PointF,Humidity,Sea Level PressureIn,VisibilityMPH,Wind Direction,Wind SpeedMPH,Gust SpeedMPH,PrecipitationIn,Events,Conditions,WindDirDegrees,DateUTC
12:53 AM,75.9,68.0,76,30.16,10.0,ENE,4.6,-,N/A,,Clear,70,2012-10-14 10:53:00
1:53 AM,75.0,68.0,79,30.14,10.0,NE,3.5,-,N/A,,Clear,50,2012-10-14 11:53:00
2:53 AM,73.9,68.0,82,30.12,10.0,Variable,3.5,-,N/A,,Clear,0,2012-10-14 12:53:00
3:02 AM,75.2,68.0,78,30.10,10.0,Variable,3.5,-,N/A,,Partly Cloudy,0,2012-10-14 13:02:00
3:53 AM,75.0,68.0,79,30.11,10.0,Calm,Calm,-,N/A,,Scattered Clouds,0,2012-10-14 13:53:00
4:53 AM,73.0,71.1,93,30.12,6.0,ENE,8.1,-,0.01,Rain,Light Rain,60,2012-10-14 14:53:00
5:53 AM,73.0,70.0,90,30.13,10.0,Variable,3.5,-,0.00,,Mostly Cloudy,0,2012-10-14 15:53:00
6:17 AM,73.4,69.8,88,30.13,4.0,Variable,3.5,-,0.00,Rain,Light Rain,0,2012-10-14 16:17:00
6:50 AM,73.4,71.6,94,30.13,10.0,Calm,Calm,-,0.01,,Overcast,0,2012-10-14 16:50:00
6:53 AM,73.0,71.1,93,30.15,10.0,Calm,Calm,-,0.01,,Overcast,0,2012-10-14 16:53:00
7:53 AM,73.9,72.0,93,30.16,10.0,Calm,Calm,-,N/A,,Overcast,0,2012-10-14 17:53:00
8:25 AM,75.2,71.6,89,30.14,10.0,Variable,4.6,-,N/A,,Overcast,0,2012-10-14 18:25:00
8:53 AM,78.1,71.1,79,30.17,10.0,Variable,4.6,-,N/A,,Mostly Cloudy,0,2012-10-14 18:53:00
9:04 AM,77.0,69.8,78,30.15,10.0,Variable,5.8,-,N/A,,Overcast,0,2012-10-14 19:04:00
9:53 AM,75.9,73.0,91,30.18,8.0,Variable,3.5,-,0.00,Rain,Light Rain,0,2012-10-14 19:53:00
10:33 AM,78.8,69.8,74,30.15,10.0,Variable,6.9,-,0.00,,Overcast,0,2012-10-14 20:33:00
10:53 AM,75.9,73.9,94,30.17,7.0,Calm,Calm,-,0.02,Rain,Light Rain,0,2012-10-14 20:53:00
11:00 AM,75.2,73.4,94,30.15,10.0,East,6.9,-,0.00,,Overcast,100,2012-10-14 21:00:00
11:13 AM,77.0,73.4,89,30.14,8.0,Variable,5.8,-,0.00,Rain,Light Rain,0,2012-10-14 21:13:00
11:53 AM,79.0,71.1,77,30.14,10.0,Calm,Calm,-,0.00,,Overcast,0,2012-10-14 21:53:00
12:53 PM,81.0,68.0,65,30.12,10.0,ENE,8.1,-,N/A,,Mostly Cloudy,60,2012-10-14 22:53:00
1:53 PM,82.9,68.0,60,30.09,10.0,Variable,6.9,-,N/A,,Scattered Clouds,0,2012-10-14 23:53:00
2:53 PM,81.0,66.9,62,30.08,10.0,NE,8.1,16.1,N/A,,Mostly Cloudy,50,2012-10-15 00:53:00
3:53 PM,78.1,69.1,74,30.08,10.0,Variable,5.8,-,N/A,,Scattered Clouds,0,2012-10-15 01:53:00
4:53 PM,78.1,68.0,71,30.09,10.0,Variable,6.9,-,N/A,,Mostly Cloudy,0,2012-10-15 02:53:00
5:53 PM,77.0,68.0,74,30.09,10.0,ENE,8.1,-,N/A,,Partly Cloudy,70,2012-10-15 03:53:00
6:53 PM,75.9,69.1,79,30.11,10.0,Variable,3.5,-,N/A,,Mostly Cloudy,0,2012-10-15 04:53:00
7:53 PM,73.9,68.0,82,30.13,10.0,Calm,Calm,-,N/A,,Scattered Clouds,0,2012-10-15 05:53:00
8:53 PM,73.9,69.1,85,30.14,10.0,ENE,8.1,-,N/A,,Clear,70,2012-10-15 06:53:00
9:53 PM,73.9,69.1,85,30.15,10.0,Variable,4.6,-,N/A,,Scattered Clouds,0,2012-10-15 07:53:00
10:53 PM,73.0,69.1,87,30.15,10.0,ENE,3.5,-,N/A,,Scattered Clouds,70,2012-10-15 08:53:00
11:53 PM,73.0,68.0,84,30.14,10.0,Calm,Calm,-,N/A,,Partly Cloudy,0,2012-10-15 09:53:00